Change the Weather History Date:

Thursday, March 21, 2013

  Actual Average (LRTM) Record (LRTM)
Temperature  
Mean Temperature 42 °F -  
Max Temperature 54 °F 57 °F 68 °F (2014)
Min Temperature 30 °F 36 °F 21 °F (2005)
Degree Days  
Heating Degree Days 23    
Moisture  
Dew Point 33 °F    
Average Humidity 63    
Maximum Humidity 91    
Minimum Humidity 37    
Precipitation  
Precipitation 0.28 in 0.06 in - ()
Sea Level Pressure  
Sea Level Pressure 29.66 in    
Wind  
Wind Speed 5 mph ()    
Max Wind Speed 18 mph    
Max Gust Speed -    
Visibility 7.4 miles    
Events Rain    
Averages and records for this station are not official NWS values.
T = Trace of Precipitation, MM = Missing Value Source: Averaged Metar Reports

Daily Weather History Graph

Daily Weather History Graph

Search for Another Location

Airport or City:

Trip Planner

Search our weather history database for the weather conditions in past years. The results will help you decide how hot, cold, wet, or windy it might be!

Date:

Astronomy

Mar. 21, 2013 Rise Set
Actual Time 6:24 AM EET 6:37 PM EET
Civil Twilight 5:55 AM EET 7:07 PM EET
Nautical Twilight 5:20 AM EET 7:42 PM EET
Astronomical Twilight 4:44 AM EET 8:18 PM EET
Moon 12:34 PM EET (3/21) 2:49 AM EET (3/21)
Length of Visible Light 13h 12m
Length of Day
12h 12m
Waxing Gibbous, 66% of the Moon is Illuminated
Mar 21
Waxing Gibbous
Mar 27
Full
Apr 3
Last Quarter
Apr 10
New
Apr 18
First Quarter

Hourly Weather History & Observations

Time (EET) Temp. Windchill Dew Point Humidity Pressure Visibility Wind Dir Wind Speed Gust Speed Precip Events Conditions
12:00 AM 35 °F - 28 °F 68% 29.91 in 12 mi WSW 4.5 mph - -  
12:00 AM 37.4 °F - 26.6 °F 65% 29.83 in - Variable 2.3 mph - N/A   Clear
1:00 AM 38 °F - 28 °F 56% 29.88 in 12 mi ENE 2.2 mph - -  
1:00 AM 32.0 °F 27.5 °F 24.8 °F 75% 29.83 in - NW 4.6 mph - N/A   Clear
2:00 AM 37 °F - 27 °F 55% 29.88 in 12 mi North 2.2 mph - -  
2:00 AM 35.6 °F - 26.6 °F 70% 29.80 in - Variable 2.3 mph - N/A   Clear
3:00 AM 34 °F - 25 °F 60% 29.86 in 12 mi ENE 2.2 mph - -  
3:00 AM 35.6 °F 31.7 °F 26.6 °F 70% 29.77 in - Variable 4.6 mph - N/A   Clear
4:00 AM 35 °F - 26 °F 60% 29.83 in 12 mi SSW 2.2 mph - -  
4:00 AM 37.4 °F - 26.6 °F 65% 29.74 in - Variable 2.3 mph - N/A   Clear
5:00 AM 37 °F - 26 °F 53% 29.81 in 12 mi SSE 2.2 mph - -  
5:00 AM 37.4 °F 33.8 °F 28.4 °F 70% 29.74 in - SSE 4.6 mph - N/A   Clear
5:30 AM 37.4 °F 33.8 °F 28.4 °F 70% 29.74 in - SSE 4.6 mph - N/A   Clear
6:00 AM 36 °F - 29 °F 68% 29.80 in 12 mi SSE 6.7 mph - -   Clear
6:00 AM 37.4 °F 33.8 °F 28.4 °F 70% 29.74 in - SE 4.6 mph - N/A   Clear
6:30 AM 37.4 °F - 28.4 °F 70% 29.71 in - Variable 2.3 mph - N/A   Clear
7:00 AM 37 °F - 29 °F 64% 29.78 in 31 mi SSE 2.2 mph - -   Mostly Cloudy
7:00 AM 35.6 °F - 28.4 °F 75% 29.71 in - Variable 2.3 mph - N/A   Clear
7:30 AM 37.4 °F 32.1 °F 30.2 °F 75% 29.71 in - SE 6.9 mph - N/A   Clear
8:00 AM 38 °F - 30 °F 65% 29.77 in 31 mi SE 6.7 mph - -   Mostly Cloudy
8:00 AM 39.2 °F 33.0 °F 30.2 °F 70% 29.71 in - ESE 9.2 mph - N/A   Clear
8:30 AM 41.0 °F 36.4 °F 30.2 °F 65% 29.71 in - ESE 6.9 mph - N/A   Clear
9:00 AM 41 °F - 29 °F 52% 29.75 in 31 mi SE 6.7 mph - -   Overcast
9:00 AM 42.8 °F 40.1 °F 30.2 °F 61% 29.68 in - ESE 4.6 mph - N/A   Clear
9:30 AM 42.8 °F 40.1 °F 32.0 °F 66% 29.68 in 6.2 mi SE 4.6 mph - N/A   Scattered Clouds
10:00 AM 43 °F - 31 °F 50% 29.73 in 31 mi ESE 6.7 mph - -   Partly Cloudy
10:00 AM 41.0 °F 36.4 °F 33.8 °F 76% 29.68 in 6.2 mi SW 6.9 mph - N/A   Scattered Clouds
10:30 AM 42.8 °F - 32.0 °F 66% 29.68 in 6.2 mi West 2.3 mph - N/A   Scattered Clouds
11:00 AM 42 °F - 33 °F 60% 29.73 in 31 mi SSW 2.2 mph - -   Overcast
11:00 AM 42.8 °F - 30.2 °F 61% 29.68 in 6.2 mi Calm Calm - N/A   Scattered Clouds
11:30 AM 44.6 °F - 32.0 °F 61% 29.65 in 6.2 mi Variable 2.3 mph - N/A   Scattered Clouds
12:00 PM 44 °F - 30 °F 45% 29.70 in 31 mi East 4.5 mph - -   Overcast
12:00 PM 44.6 °F 42.2 °F 30.2 °F 57% 29.65 in 6.2 mi East 4.6 mph - N/A   Scattered Clouds
12:30 PM 46.4 °F 44.3 °F 32.0 °F 57% 29.65 in 6.2 mi ESE 4.6 mph - N/A   Scattered Clouds
1:00 PM 48 °F - 31 °F 40% 29.67 in 31 mi East 4.5 mph - -   Partly Cloudy
1:00 PM 48.2 °F - 33.8 °F 58% 29.62 in 6.2 mi SE 4.6 mph - N/A   Scattered Clouds
1:30 PM 51.8 °F - 35.6 °F 54% 29.62 in 6.2 mi ESE 6.9 mph - N/A   Scattered Clouds
2:00 PM 53 °F - 34 °F 37% 29.62 in 31 mi East 6.7 mph - -   Partly Cloudy
2:00 PM 51.8 °F - 35.6 °F 54% 29.59 in 6.2 mi East 11.5 mph - N/A   Scattered Clouds
2:30 PM 53.6 °F - 35.6 °F 51% 29.59 in 6.2 mi ESE 11.5 mph - N/A   Scattered Clouds
3:00 PM 53 °F - 36 °F 40% 29.59 in 31 mi East 11.2 mph - -   Overcast
3:00 PM 53.6 °F - 39.2 °F 58% 29.56 in 6.2 mi SSE 18.4 mph - N/A   Mostly Cloudy
3:30 PM 53.6 °F - 39.2 °F 58% 29.56 in 6.2 mi SE 13.8 mph - N/A   Scattered Clouds
4:00 PM 53 °F - 38 °F 46% 29.56 in 31 mi SE 13.4 mph - -   Overcast
4:00 PM 51.8 °F - 39.2 °F 62% 29.56 in 6.2 mi SE 16.1 mph - N/A   Mostly Cloudy
4:30 PM 51.8 °F - 39.2 °F 62% 29.53 in 6.2 mi SSE 13.8 mph - N/A   Mostly Cloudy
5:00 PM 52 °F - 40 °F 52% 29.55 in 31 mi SE 13.4 mph - -   Overcast
5:00 PM 51.8 °F - 39.2 °F 62% 29.53 in 6.2 mi SSE 13.8 mph - N/A   Mostly Cloudy
5:30 PM 50.0 °F - 41.0 °F 71% 29.53 in 6.2 mi SSE 11.5 mph - N/A   Mostly Cloudy
6:00 PM 50 °F - 40 °F 59%  in 31 mi SE 13.4 mph - -   Overcast
6:00 PM 51.8 °F - 39.2 °F 62% 29.50 in 6.2 mi SSE 13.8 mph - N/A   Mostly Cloudy
6:30 PM 51.8 °F - 39.2 °F 62% 29.50 in 6.2 mi SSE 13.8 mph - N/A   Mostly Cloudy
7:00 PM 51 °F - 40 °F 56% 29.52 in 31 mi SE 11.2 mph - -   Overcast
7:00 PM 51.8 °F - 39.2 °F 62% 29.50 in 6.2 mi SSE 11.5 mph - N/A   Mostly Cloudy
7:30 PM 50.0 °F - 41.0 °F 71% 29.50 in 6.2 mi SSE 13.8 mph - N/A   Overcast
8:00 PM 50 °F - 41 °F 61% 29.53 in 12 mi SE 11.2 mph - -   Overcast
8:00 PM 46.4 °F 41.9 °F 37.4 °F 71% 29.53 in 6.2 mi SW 9.2 mph - N/A   Overcast
8:30 PM 46.4 °F 41.9 °F 35.6 °F 66% 29.53 in 6.2 mi West 9.2 mph - N/A Rain Light Rain
9:00 PM 46 °F - 36 °F 57% 29.55 in 12 mi West 6.7 mph - -   Overcast
9:00 PM 44.6 °F 42.2 °F 37.4 °F 76% 29.53 in 6.2 mi Variable 4.6 mph - N/A Rain Light Rain
10:00 PM 43 °F - 39 °F 80% 29.57 in 2 mi West 8.9 mph - - Rain Heavy Rain Showers
10:00 PM 42.8 °F 37.5 °F 39.2 °F 87% 29.53 in 6.2 mi WNW 9.2 mph - N/A Rain Light Rain
11:00 PM 42 °F - 40 °F 91% 29.58 in 2 mi West 8.9 mph - - Rain Heavy Rain Showers
11:00 PM 42.8 °F 36.6 °F 39.2 °F 87% 29.53 in 6.2 mi WNW 11.5 mph - N/A Rain Light Rain